GW3011 Weather Reports


time (UTC)temp
C
wind
direction
speed
KPH
gust
KPH
rain 1hr
cm
rain 24hr
cm
rain mn
cm
humidity
%
barometer
mb
20260831134009 22 288 0.0 0.0 0.00 0.00 0.00 76 1019.5
20260831133504 22 242 0.0 0.0 0.00 0.00 0.00 75 1019.5
20260831132958 22 328 0.0 0.0 0.00 0.00 0.00 75 1019.4
20260831132455 23 307 0.0 0.0 0.00 0.00 0.00 74 1019.4
20260831131954 22 190 0.0 0.0 0.00 0.00 0.00 75 1019.6
20260831131454 22 178 0.0 0.0 0.00 0.00 0.00 76 1019.6
20260831130950 22 224 0.0 0.0 0.00 0.00 0.00 77 1019.7
20260831130445 22 203 0.0 0.0 0.00 0.00 0.00 77 1019.6
20260831125944 22 195 0.0 0.0 0.00 0.00 0.00 77 1019.7
20260831125439 22 182 0.0 0.0 0.00 0.00 0.00 78 1019.6
20260831124935 22 252 0.0 0.0 0.00 0.00 0.00 78 1019.7
20260831124431 22 257 0.0 0.0 0.00 0.00 0.00 78 1019.6
20260831123926 22 287 0.0 0.0 0.00 0.00 0.00 78 1019.5
20260831123424 22 206 0.0 0.0 0.00 0.00 0.00 78 1019.5
20260831122920 22 187 0.0 0.0 0.00 0.00 0.00 78 1019.7
20260831122414 22 259 0.0 0.0 0.00 0.00 0.00 78 1019.7
20260831121910 22 225 0.0 0.0 0.00 0.00 0.00 78 1019.5
20260831121401 22 302 0.0 0.0 0.00 0.00 0.00 78 1019.5
20260831120855 22 182 0.0 0.0 0.00 0.00 0.00 78 1019.4
20260831120355 22 190 0.0 0.0 0.00 0.00 0.00 78 1019.5
20260831115845 22 231 0.0 0.0 0.00 0.00 0.00 79 1019.4
20260831115342 22 241 0.0 0.0 0.00 0.00 0.00 80 1019.4
20260831114841 22 193 0.0 0.0 0.00 0.00 0.00 79 1019.3
20260831114339 22 191 0.0 0.0 0.00 0.00 0.00 80 1019.3
20260831113830 22 343 0.0 0.0 0.00 0.00 0.00 80 1019.0
20260831113329 22 279 0.0 0.0 0.00 0.00 0.00 81 1018.9
20260831112824 22 285 0.0 0.0 0.00 0.00 0.00 81 1019.1
20260831112319 22 310 0.0 0.0 0.00 0.00 0.00 80 1019.2
20260831111815 22 11 0.0 0.0 0.00 0.00 0.00 80 1019.3
20260831111311 22 174 0.0 0.0 0.00 0.00 0.00 81 1019.2
20260831110806 22 165 0.0 0.0 0.00 0.00 0.00 80 1019.1
20260831110301 21 237 0.0 0.0 0.00 0.00 0.00 81 1019.1
20260831105759 21 186 0.0 0.0 0.00 0.00 0.00 81 1019.1
20260831105255 21 265 0.0 0.0 0.00 0.00 0.00 81 1019.0
20260831104750 21 203 0.0 0.0 0.00 0.00 0.00 81 1018.8
20260831104246 21 287 0.0 0.0 0.00 0.00 0.00 81 1018.7
20260831103746 22 332 0.0 0.0 0.00 0.00 0.00 81 1018.7
20260831103241 22 338 0.0 0.0 0.00 0.00 0.00 80 1018.9
20260831102736 22 214 0.0 0.0 0.00 0.00 0.00 81 1018.5
20260831102231 22 201 0.0 0.0 0.00 0.00 0.00 81 1018.6
20260831101726 22 296 0.0 0.0 0.00 0.00 0.00 80 1018.5
20260831101222 22 218 0.0 0.0 0.00 0.00 0.00 80 1018.3
20260831100718 22 328 0.0 0.0 0.00 0.00 0.00 80 1018.5
20260831100214 22 328 0.0 0.0 0.00 0.00 0.00 80 1018.3
20260831095712 22 191 0.0 0.0 0.00 0.00 0.00 79 1018.7
20260831095207 22 156 0.0 0.0 0.00 0.00 0.00 79 1018.4
20260831094702 22 186 0.0 0.0 0.00 0.00 0.00 80 1018.3
20260831094158 22 293 0.0 0.0 0.00 0.00 0.00 79 1018.3
20260831093654 22 136 0.0 0.0 0.00 0.00 0.00 80 1018.2
20260831093149 22 145 0.0 0.0 0.00 0.00 0.00 79 1018.3
20260831092645 22 290 0.0 0.0 0.00 0.00 0.00 79 1018.1
20260831092141 22 133 0.0 0.0 0.00 0.00 0.00 79 1018.2
20260831091640 22 154 0.0 0.0 0.00 0.00 0.00 79 1018.2
20260831091136 22 285 0.0 0.0 0.00 0.00 0.00 79 1018.1
20260831090631 22 115 0.0 0.0 0.00 0.00 0.00 80 1018.1
20260831090127 22 115 0.0 0.0 0.00 0.00 0.00 80 1017.7
20260831085622 22 133 0.0 0.0 0.00 0.00 0.00 79 1018.0
20260831085118 22 142 0.0 0.0 0.00 0.00 0.00 78 1017.9
20260831084614 22 144 0.0 0.0 0.00 0.00 0.00 78 1017.8
20260831084109 22 175 0.0 0.0 0.00 0.00 0.00 78 1018.1
20260831083605 22 164 0.0 0.0 0.00 0.00 0.00 77 1018.1
20260831083100 22 134 0.0 0.0 0.00 0.00 0.00 78 1018.2
20260831082553 22 169 0.0 0.0 0.00 0.00 0.00 78 1018.0
20260831082049 22 146 0.0 0.0 0.00 0.00 0.00 77 1017.8
20260831081544 22 176 0.0 0.0 0.00 0.00 0.00 77 1017.9
20260831081040 22 129 0.0 0.0 0.00 0.00 0.00 77 1017.9
20260831080540 22 194 0.0 0.0 0.00 0.00 0.00 76 1018.0
20260831080030 22 171 0.0 0.0 0.00 0.00 0.00 76 1018.2
20260831075525 22 207 0.0 0.0 0.00 0.00 0.00 76 1017.8
20260831075020 22 197 0.0 0.0 0.00 0.00 0.00 76 1018.1
20260831074515 22 321 0.0 0.0 0.00 0.00 0.00 77 1018.2
20260831074014 22 174 0.0 0.0 0.00 0.00 0.00 76 1018.1
20260831073509 22 167 0.0 0.0 0.00 0.00 0.00 77 1018.2
20260831073009 22 222 0.0 0.0 0.00 0.00 0.00 77 1018.1
20260831072504 22 175 0.0 0.0 0.00 0.00 0.00 77 1018.1
20260831072000 22 171 0.0 0.0 0.00 0.00 0.00 78 1017.9
20260831071459 22 209 0.0 0.0 0.00 0.00 0.00 77 1018.0
20260831070954 22 192 0.0 0.0 0.00 0.00 0.00 77 1018.2
20260831070453 22 182 0.0 0.0 0.00 0.00 0.00 78 1018.1
20260831065952 22 204 0.0 0.0 0.00 0.00 0.00 78 1018.2
20260831065450 22 214 0.0 0.0 0.00 0.00 0.00 78 1018.0
20260831064945 22 200 0.0 0.0 0.00 0.00 0.00 78 1018.1
20260831064440 22 122 0.0 0.0 0.00 0.00 0.00 79 1018.4
20260831063936 22 144 0.0 0.0 0.00 0.00 0.00 79 1018.2
20260831063431 22 150 0.0 0.0 0.00 0.00 0.00 78 1018.0
20260831062925 22 196 0.0 0.0 0.00 0.00 0.00 79 1018.2
20260831062421 22 109 0.0 0.0 0.00 0.00 0.00 78 1018.0
20260831061919 23 176 0.0 0.0 0.00 0.00 0.00 78 1018.1
20260831061418 23 171 0.0 0.0 0.00 0.00 0.00 77 1018.2
20260831060915 22 159 0.0 0.0 0.00 0.00 0.00 78 1018.4
20260831060410 23 189 0.0 0.0 0.00 0.00 0.00 78 1018.3
20260831055909 23 199 0.0 0.0 0.00 0.00 0.00 77 1018.2
20260831055404 23 140 0.0 0.0 0.00 0.00 0.00 79 1018.4
20260831054859 23 136 0.0 0.0 0.00 0.00 0.00 78 1018.5
20260831054354 23 222 0.0 0.0 0.00 0.00 0.00 77 1018.3
20260831053848 23 205 0.0 0.0 0.00 0.00 0.00 77 1018.3
20260831053346 23 196 0.0 0.0 0.00 0.00 0.00 78 1017.9
20260831052840 23 18 0.0 0.0 0.00 0.00 0.00 79 1018.0
20260831052335 23 171 0.0 0.0 0.00 0.00 0.00 81 1018.1
20260831051833 23 173 0.0 0.0 0.00 0.00 0.00 80 1018.2
20260831051332 23 183 0.0 0.0 0.00 0.00 0.00 81 1018.5
20260831050826 23 205 0.0 0.0 0.00 0.00 0.00 80 1018.5
20260831050326 23 144 0.0 0.0 0.00 0.00 0.00 80 1018.5
20260831045820 23 190 0.0 0.0 0.00 0.00 0.00 82 1018.4
20260831045314 23 116 0.0 0.0 0.00 0.00 0.00 82 1018.5
20260831044809 23 194 0.0 0.0 0.00 0.00 0.00 82 1018.5
20260831044304 23 123 0.0 0.0 0.00 0.00 0.00 82 1018.2
20260831043800 23 177 0.0 0.0 0.00 0.00 0.00 82 1018.3
20260831043254 23 177 0.0 0.0 0.00 0.00 0.00 83 1018.1
20260831042749 23 136 0.0 0.0 0.00 0.00 0.00 82 1018.3
20260831042243 23 141 0.0 0.0 0.00 0.00 0.00 82 1018.2
20260831041738 23 191 0.0 0.0 0.00 0.00 0.00 82 1018.0
20260831041237 23 188 0.0 0.0 0.00 0.00 0.00 82 1018.0
20260831040732 23 187 0.0 0.0 0.00 0.00 0.00 82 1018.0
20260831040232 23 207 0.0 0.0 0.00 0.00 0.00 83 1017.9
20260831035725 23 126 0.0 0.0 0.00 0.00 0.00 84 1017.8
20260831035224 23 184 0.0 0.0 0.00 0.00 0.00 84 1018.1
20260831034723 23 177 0.0 0.0 0.00 0.00 0.00 84 1017.9
20260831034220 23 57 0.0 0.0 0.00 0.00 0.00 83 1018.1
20260831033715 23 178 0.0 0.0 0.00 0.00 0.00 83 1018.0
20260831033214 23 177 0.0 0.0 0.00 0.00 0.00 83 1018.1
20260831032709 23 177 0.0 0.0 0.00 0.00 0.00 83 1018.0
20260831032205 23 178 0.0 0.0 0.00 0.00 0.00 86 1018.0
20260831031659 23 185 0.0 0.0 0.00 0.00 0.00 88 1018.0
20260831031159 23 181 0.0 0.0 0.00 0.00 0.00 90 1017.7
20260831030658 23 162 0.0 0.0 0.00 0.00 0.00 90 1017.7
20260831030157 23 144 0.0 0.0 0.00 0.00 0.00 91 1017.7
20260831025656 23 121 0.0 0.0 0.00 0.13 0.13 91 1017.9
20260831025150 23 167 0.0 0.0 0.00 0.13 0.13 91 1018.1
20260831024648 23 145 0.0 0.0 0.00 0.13 0.13 90 1017.9
20260831024145 23 153 0.0 0.0 0.00 0.13 0.13 90 1018.1
20260831023644 23 181 0.0 0.0 0.00 0.13 0.13 90 1018.3
20260831023137 23 160 0.0 0.0 0.00 0.13 0.13 90 1018.4
20260831022632 23 77 0.0 0.0 0.00 0.13 0.13 92 1018.6
20260831022127 23 189 0.0 0.0 0.18 0.13 0.13 93 1018.4
20260831021626 23 197 0.0 0.0 0.18 0.13 0.13 94 1018.4
20260831021122 23 129 0.0 0.0 0.00 0.10 0.10 94 1018.6
20260831020618 23 164 0.0 0.0 0.30 0.10 0.10 94 1018.6
20260831020113 23 117 0.0 0.0 0.61 0.10 0.10 96 1018.7
20260831015609 23 87 0.0 0.0 0.43 0.08 0.08 95 1018.5
20260831015108 25 152 0.0 0.0 0.00 0.00 0.00 88 1018.2
20260831014603 25 122 0.0 0.0 0.00 0.00 0.00 85 1018.5
20260831014058 25 129 0.0 0.0 0.00 0.00 0.00 84 1018.4
20260831013555 25 158 0.0 0.0 0.00 0.00 0.00 84 1018.5
20260831013054 25 101 0.0 0.0 0.00 0.00 0.00 85 1018.3
20260831012554 25 104 0.0 0.0 0.00 0.00 0.00 86 1018.0
20260831012049 25 93 0.0 0.0 0.00 0.00 0.00 86 1018.0
20260831011548 25 93 0.0 0.0 0.00 0.00 0.00 84 1018.2
20260831011044 25 92 0.0 0.0 0.00 0.00 0.00 83 1018.1
20260831010539 25 89 0.0 0.0 0.00 0.00 0.00 84 1018.1
20260831010036 25 97 0.0 0.0 0.00 0.00 0.00 83 1018.2
20260831005530 25 101 0.0 0.0 0.00 0.00 0.00 83 1017.8
20260831005029 25 93 0.0 0.0 0.00 0.00 0.00 83 1018.0
20260831004526 25 94 0.0 0.0 0.00 0.00 0.00 83 1017.8
20260831004021 25 84 0.0 0.0 0.00 0.00 0.00 82 1017.9
20260831003518 25 92 0.0 0.0 0.00 0.00 0.00 82 1018.0
20260831003014 25 73 0.0 0.0 0.00 0.00 0.00 82 1017.8
20260831002512 25 99 0.0 0.0 0.00 0.00 0.00 81 1017.8
20260831002007 25 116 0.0 0.0 0.00 0.00 0.00 81 1017.7
20260831001503 25 110 0.0 0.0 0.00 0.00 0.00 81 1017.7
20260831000959 25 116 0.0 0.0 0.00 0.00 0.00 80 1017.5
20260831000454 26 130 0.0 0.0 0.00 0.00 0.00 80 1017.6
20260830235952 26 72 0.0 0.0 0.00 0.00 0.00 79 1017.6
20260830235448 26 96 0.0 0.0 0.00 0.00 0.00 79 1017.4
20260830234943 26 129 0.0 0.0 0.00 0.00 0.00 78 1017.6
20260830234438 26 109 0.0 0.0 0.00 0.00 0.00 78 1017.3
20260830233934 26 104 0.0 0.0 0.00 0.00 0.00 78 1017.3
20260830233429 26 86 0.0 0.0 0.00 0.00 0.00 78 1017.4
20260830232925 26 123 0.0 0.0 0.00 0.00 0.00 78 1017.3
20260830232421 26 140 0.0 0.0 0.00 0.00 0.00 77 1017.2
20260830231917 26 140 0.0 0.0 0.00 0.00 0.00 78 1017.1
20260830231412 26 84 0.0 0.0 0.00 0.00 0.00 77 1017.3
20260830230911 26 156 0.0 0.0 0.00 0.00 0.00 77 1017.3
20260830230407 26 63 0.0 0.0 0.00 0.00 0.00 77 1017.4
20260830225906 26 136 0.0 0.0 0.00 0.00 0.00 77 1017.3
20260830225401 26 99 0.0 0.0 0.00 0.00 0.00 77 1017.2
20260830224856 26 102 0.0 0.0 0.00 0.00 0.00 77 1017.2
20260830224355 26 99 0.0 0.0 0.00 0.00 0.00 77 1017.3
20260830223852 26 120 0.0 0.0 0.00 0.00 0.00 76 1017.4
20260830223348 26 96 0.0 0.0 0.00 0.00 0.00 76 1017.2
20260830222847 26 121 0.0 0.0 0.00 0.00 0.00 77 1017.2
20260830222343 26 154 0.0 0.0 0.00 0.00 0.00 77 1017.6
20260830221838 26 110 0.0 0.0 0.00 0.00 0.00 77 1017.5
20260830221335 26 123 0.0 0.0 0.00 0.00 0.00 76 1017.4
20260830220830 26 87 0.0 0.0 0.00 0.00 0.00 76 1017.6
20260830220329 26 164 0.0 0.0 0.00 0.00 0.00 76 1017.5
20260830215827 26 116 0.0 0.0 0.00 0.00 0.00 75 1017.5
20260830215322 26 125 0.0 0.0 0.00 0.00 0.00 75 1017.5
20260830214817 26 156 0.0 0.0 0.00 0.00 0.00 75 1017.5
20260830214312 26 106 0.0 0.0 0.00 0.00 0.00 76 1017.4
20260830213812 26 128 0.0 0.0 0.00 0.00 0.00 75 1017.4
20260830213307 26 185 0.0 0.0 0.00 0.00 0.00 75 1017.4
20260830212803 26 98 0.0 0.0 0.00 0.00 0.00 74 1017.4
20260830212259 27 119 0.0 3.2 0.00 0.00 0.00 74 1017.5
20260830211757 26 127 0.0 0.0 0.00 0.00 0.00 74 1017.4
20260830211256 26 76 0.0 0.0 0.00 0.00 0.00 75 1017.4
20260830210753 26 77 0.0 0.0 0.00 0.00 0.00 75 1017.6
20260830210252 26 53 0.0 0.0 0.00 0.00 0.00 76 1017.6
20260830205749 26 112 0.0 0.0 0.00 0.00 0.00 75 1017.6
20260830205244 26 184 0.0 0.0 0.00 0.00 0.00 75 1017.7
20260830204740 26 122 0.0 0.0 0.00 0.00 0.00 74 1017.6
20260830204238 26 145 0.0 0.0 0.00 0.00 0.00 76 1017.4
20260830203735 26 175 0.0 0.0 0.00 0.00 0.00 76 1017.7
20260830203230 26 143 0.0 0.0 0.00 0.00 0.00 76 1017.8
20260830202730 26 181 0.0 0.0 0.00 0.00 0.00 76 1017.9
20260830202225 26 154 0.0 0.0 0.00 0.00 0.00 76 1017.9
20260830201724 26 169 0.0 0.0 0.00 0.00 0.00 76 1017.8
20260830201220 26 146 0.0 0.0 0.00 0.00 0.00 75 1017.9
20260830200715 26 112 1.6 3.2 0.00 0.00 0.00 75 1017.9
20260830200214 26 87 0.0 0.0 0.00 0.00 0.00 77 1018.0
20260830195710 25 125 0.0 0.0 0.00 0.00 0.00 78 1018.0
20260830195208 25 85 0.0 0.0 0.00 0.00 0.00 80 1018.1
20260830194702 24 78 0.0 0.0 0.00 0.00 0.00 84 1018.3
20260830194201 25 109 0.0 1.6 0.00 0.00 0.00 75 1018.2
20260830193656 25 101 0.0 0.0 0.00 0.00 0.00 75 1018.3
20260830193150 25 113 0.0 0.0 0.00 0.00 0.00 75 1018.3
20260830192646 25 114 0.0 0.0 0.00 0.00 0.00 75 1018.4
20260830192141 25 132 0.0 0.0 0.00 0.00 0.00 75 1018.2
20260830191637 25 107 0.0 0.0 0.00 0.00 0.00 75 1018.3
20260830191131 25 117 0.0 0.0 0.00 0.00 0.00 75 1018.6
20260830190621 25 37 1.6 4.8 0.00 0.00 0.00 75 1018.6
20260830190115 25 114 0.0 0.0 0.00 0.00 0.00 75 1018.9
20260830185608 25 67 0.0 0.0 0.00 0.00 0.00 76 1018.8
20260830185059 25 63 0.0 0.0 0.00 0.00 0.00 77 1019.1
20260830184557 25 106 0.0 0.0 0.00 0.00 0.00 77 1019.2
20260830184052 25 114 0.0 0.0 0.00 0.00 0.00 77 1019.3
20260830183547 25 92 0.0 0.0 0.00 0.00 0.00 76 1019.2
20260830183043 25 89 0.0 0.0 0.00 0.00 0.00 76 1019.3
20260830182538 25 115 0.0 3.2 0.00 0.00 0.00 74 1019.2
20260830182034 25 71 0.0 0.0 0.00 0.00 0.00 75 1019.1
20260830181531 25 130 0.0 0.0 0.00 0.00 0.00 74 1019.2
20260830181030 25 98 3.2 6.4 0.00 0.00 0.00 73 1019.3
20260830180529 25 98 0.0 0.0 0.00 0.00 0.00 74 1019.5
20260830180028 26 130 0.0 0.0 0.00 0.00 0.00 73 1019.3
20260830175527 26 125 3.2 9.7 0.00 0.00 0.00 72 1019.4
20260830175023 26 121 3.2 4.8 0.00 0.00 0.00 73 1019.3
20260830174519 26 103 0.0 3.2 0.00 0.00 0.00 72 1019.8
20260830174014 25 148 0.0 0.0 0.00 0.00 0.00 73 1019.7
20260830173509 25 74 0.0 0.0 0.00 0.00 0.00 74 1019.8
20260830173004 25 102 3.2 4.8 0.00 0.00 0.00 73 1019.8
20260830172501 25 118 8.0 12.9 0.00 0.00 0.00 73 1019.7
20260830171956 25 94 0.0 1.6 0.00 0.00 0.00 73 1020.0
20260830171451 25 77 0.0 1.6 0.00 0.00 0.00 73 1019.8
20260830170951 25 160 4.8 9.7 0.00 0.00 0.00 71 1019.9
20260830170446 25 112 4.8 9.7 0.00 0.00 0.00 71 1020.0
20260830165944 25 119 4.8 12.9 0.00 0.00 0.00 69 1020.0
20260830165441 26 46 0.0 0.0 0.00 0.00 0.00 70 1019.9
20260830164936 25 124 0.0 0.0 0.00 0.00 0.00 71 1020.0
20260830164432 25 142 0.0 0.0 0.00 0.00 0.00 71 1020.2
20260830163928 24 91 0.0 0.0 0.00 0.00 0.00 76 1020.0
20260830163425 24 138 0.0 0.0 0.00 0.00 0.00 75 1020.1
20260830162923 23 117 0.0 0.0 0.00 0.00 0.00 77 1020.2
20260830162420 23 108 0.0 0.0 0.00 0.00 0.00 78 1020.5
20260830161920 24 73 0.0 0.0 0.00 0.00 0.00 77 1020.6
20260830161419 24 90 0.0 0.0 0.00 0.00 0.00 72 1020.5
20260830160914 24 87 0.0 0.0 0.00 0.00 0.00 71 1020.6
20260830160411 25 92 0.0 0.0 0.00 0.00 0.00 69 1020.5
20260830155906 25 128 0.0 0.0 0.00 0.00 0.00 69 1020.5
20260830155402 25 96 0.0 0.0 0.00 0.00 0.00 69 1020.6
20260830154856 25 103 1.6 4.8 0.00 0.00 0.00 69 1020.5
20260830154353 25 101 1.6 3.2 0.00 0.00 0.00 67 1020.5
20260830153849 25 107 6.4 6.4 0.00 0.00 0.00 68 1020.7
20260830153344 25 110 3.2 4.8 0.00 0.00 0.00 69 1021.0
20260830152843 24 90 0.0 0.0 0.00 0.00 0.00 71 1020.9
20260830152338 23 132 1.6 4.8 0.00 0.00 0.00 71 1020.9
20260830151833 23 157 0.0 0.0 0.00 0.00 0.00 72 1021.3
20260830151332 23 125 0.0 0.0 0.00 0.00 0.00 71 1021.1
20260830150827 23 131 1.6 6.4 0.00 0.00 0.00 72 1021.1
20260830150326 23 74 0.0 0.0 0.00 0.00 0.00 71 1021.0
20260830145821 23 82 3.2 6.4 0.00 0.00 0.00 70 1021.1
20260830145316 23 66 1.6 6.4 0.00 0.00 0.00 72 1021.2
20260830144811 23 107 3.2 9.7 0.00 0.00 0.00 70 1021.4
20260830144307 23 120 1.6 4.8 0.00 0.00 0.00 68 1021.3
20260830143803 24 75 0.0 3.2 0.00 0.00 0.00 67 1021.3
20260830143303 25 98 3.2 9.7 0.00 0.00 0.00 65 1021.3
20260830142757 25 128 0.0 0.0 0.00 0.00 0.00 65 1021.0
20260830142252 25 94 0.0 0.0 0.00 0.00 0.00 64 1021.3
20260830141747 24 122 0.0 0.0 0.00 0.00 0.00 65 1021.2
20260830141242 24 110 1.6 4.8 0.00 0.00 0.00 64 1021.4
20260830140737 25 107 0.0 0.0 0.00 0.00 0.00 63 1021.3
20260830140231 24 66 0.0 0.0 0.00 0.00 0.00 62 1021.4
20260830135726 24 99 0.0 3.2 0.00 0.00 0.00 60 1021.3
20260830135222 24 59 0.0 0.0 0.00 0.00 0.00 60 1021.6
20260830134717 24 132 0.0 0.0 0.00 0.00 0.00 60 1021.6
20260830134212 23 117 0.0 1.6 0.00 0.00 0.00 62 1021.6